QPF
0.00 0.00 0.00 0.00 0.00 0.00 0.00 0.00 0.00 0.00 0.00 0.00 0.00 0.00 0.00 0.00 0.00 0.01 0.00 0.00 0.00 0.00 0.02 0.02 0.03 0.08 0.14 0.04 0.01 0.01 0.01 0.02 0.00 0.00 0.00 0.00 0.00 0.00 0.00 0.00 0.00 0.00 0.02 0.00 0.00 0.00 0.00 0.00 0.02
0.00 0.00 0.00 0.00 0.00 0.00 0.00 0.00 0.00 0.00 0.00 0.00 0.00 0.00 0.01 0.00 0.00 0.00 0.00 0.00 0.00 0.00 0.01 0.02 0.12 0.23 0.16 0.02 0.01 0.00 0.00 0.00 0.00 0.00 0.00 0.00 0.00 0.00 0.00 0.00 0.00 0.01 0.00 0.00 0.01 0.00 0.00 0.00 0.00
0.00 0.00 0.00 0.00 0.00 0.00 0.00 0.00 0.00 0.00 0.00 0.00 0.00 0.00 0.00 0.00 0.00 0.00 0.00 0.00 0.00 0.00 0.02 0.01 0.03 0.14 0.15 0.13 0.00 0.01 0.00 0.00 0.00 0.00 0.00 0.00 0.00 0.00 0.00 0.00 0.00 0.00 0.00 0.01 0.00 0.00 0.00 0.00 0.00
0.00 0.00 0.00 0.00 0.00 0.00 0.00 0.00 0.00 0.00 0.00 0.00 0.00 0.00 0.00 0.00 0.00 0.00 0.00 0.00 0.00 0.00 0.00 0.01 0.00 0.05 0.14 0.15 0.06 0.03 0.00 0.00 0.00 0.00 0.00 0.00 0.00 0.00 0.00 0.01 0.01 0.01 0.01 0.04 0.01 0.00 0.00 0.00 0.00
0.00 0.00 0.00 0.00 0.00 0.00 0.00 0.00 0.00 0.00 0.00 0.00 0.00 0.00 0.00 0.00 0.00 0.00 0.00 0.00 0.00 0.00 0.01 0.07 0.01 0.06 0.13 0.14 0.18 0.15 0.12 0.09 0.04 0.00 0.03 0.02 0.01 0.01 0.01 0.02 0.02 0.04 0.01 0.02 0.01 0.00 0.00 0.00 0.00
0.00 0.00 0.00 0.00 0.00 0.00 0.00 0.00 0.00 0.00 0.00 0.00 0.00 0.00 0.00 0.00 0.00 0.00 0.00 0.00 0.00 0.00 0.00 0.09 0.16 0.13 0.09 0.18 0.31 0.26 0.19 0.25 0.31 0.15 0.09 0.06 0.02 0.01 0.00 0.04 0.11 0.06 0.03 0.02 0.01 0.00 0.00 0.00 0.00
0.00 0.00 0.00 0.00 0.00 0.00 0.00 0.00 0.00 0.00 0.00 0.00 0.00 0.00 0.00 0.00 0.00 0.00 0.00 0.00 0.00 0.01 0.00 0.04 0.06 0.09 0.07 0.13 0.18 0.20 0.12 0.13 0.21 0.21 0.11 0.07 0.04 0.00 0.02 0.14 0.08 0.08 0.01 0.01 0.03 0.01 0.00 0.00 0.01
0.00 0.00 0.00 0.00 0.00 0.00 0.00 0.00 0.00 0.00 0.00 0.00 0.00 0.00 0.00 0.00 0.00 0.00 0.00 0.00 0.00 0.04 0.03 0.01 0.02 0.10 0.07 0.18 0.23 0.19 0.07 0.01 0.03 0.03 0.02 0.04 0.05 0.01 0.09 0.06 0.02 0.02 0.02 0.08 0.07 0.02 0.06 0.02 0.01
0.00 0.00 0.00 0.00 0.00 0.00 0.00 0.00 0.00 0.00 0.00 0.00 0.00 0.00 0.00 0.00 0.00 0.00 0.00 0.00 0.01 0.04 0.01 0.01 0.03 0.05 0.03 0.11 0.26 0.18 0.09 0.04 0.00 0.00 0.00 0.01 0.05 0.05 0.10 0.01 0.00 0.00 0.03 0.07 0.10 0.00 0.02 0.00 0.00
0.00 0.00 0.00 0.00 0.00 0.00 0.00 0.00 0.00 0.00 0.00 0.00 0.00 0.00 0.00 0.00 0.00 0.00 0.00 0.00 0.00 0.00 0.00 0.00 0.00 0.00 0.00 0.01 0.16 0.14 0.07 0.01 0.01 0.00 0.00 0.02 0.06 0.06 0.03 0.00 0.00 0.00 0.01 0.05 0.07 0.00 0.00 0.00 0.00
0.00 0.00 0.00 0.00 0.00 0.00 0.00 0.00 0.00 0.00 0.00 0.00 0.00 0.00 0.00 0.00 0.00 0.00 0.00 0.00 0.00 0.00 0.00 0.00 0.00 0.00 0.00 0.00 0.10 0.10 0.01 0.01 0.00 0.00 0.01 0.02 0.01 0.02 0.00 0.00 0.00 0.00 0.00 0.00 0.00 0.00 0.00 0.00 0.00
0.00 0.00 0.00 0.00 0.00 0.00 0.00 0.00 0.00 0.00 0.00 0.00 0.00 0.00 0.00 0.00 0.00 0.00 0.00 0.00 0.00 0.00 0.00 0.00 0.00 0.00 0.00 0.00 0.03 0.06 0.01 0.00 0.00 0.00 0.00 0.00 0.00 0.00 0.00 0.00 0.00 0.00 0.00 0.00 0.00 0.00 0.00 0.00 0.00
0.00 0.00 0.00 0.00 0.00 0.00 0.00 0.00 0.00 0.00 0.00 0.00 0.00 0.00 0.00 0.00 0.00 0.00 0.00 0.00 0.00 0.00 0.00 0.00 0.00 0.00 0.00 0.00 0.00 0.00 0.01 0.00 0.00 0.00 0.00 0.00 0.00 0.00 0.00 0.00 0.00 0.00 0.00 0.00 0.00 0.00 0.00 0.00 0.00
0.00 0.00 0.00 0.00 0.00 0.00 0.00 0.00 0.00 0.00 0.00 0.00 0.00 0.00 0.00 0.00 0.00 0.00 0.00 0.00 0.00 0.00 0.00 0.00 0.00 0.00 0.00 0.00 0.00 0.00 0.00 0.00 0.00 0.00 0.00 0.00 0.00 0.00 0.00 0.00 0.00 0.00 0.00 0.00 0.00 0.00 0.00 0.00 0.00
0.00 0.00 0.00 0.00 0.00 0.00 0.00 0.00 0.00 0.00 0.00 0.00 0.00 0.00 0.00 0.00 0.00 0.00 0.00 0.00 0.00 0.00 0.01 0.00 0.01 0.00 0.00 0.00 0.00 0.00 0.00 0.00 0.00 0.00 0.00 0.00 0.00 0.00 0.00 0.00 0.00 0.00 0.00 0.00 0.00 0.00 0.00 0.00 0.00
0.00 0.00 0.00 0.00 0.00 0.00 0.00 0.00 0.00 0.00 0.00 0.00 0.00 0.00 0.00 0.00 0.00 0.00 0.00 0.00 0.00 0.00 0.00 0.00 0.00 0.00 0.00 0.00 0.00 0.00 0.00 0.00 0.00 0.00 0.00 0.00 0.01 0.01 0.00 0.00 0.00 0.00 0.00 0.00 0.00 0.00 0.00 0.00 0.00
0.00 0.00 0.00 0.00 0.00 0.00 0.00 0.00 0.00 0.00 0.00 0.00 0.00 0.00 0.00 0.00 0.00 0.00 0.00 0.00 0.00 0.00 0.00 0.00 0.01 0.04 0.07 0.01 0.00 0.00 0.00 0.00 0.00 0.00 0.00 0.00 0.00 0.00 0.00 0.00 0.00 0.00 0.00 0.00 0.00 0.00 0.00 0.00 0.00
0.00 0.00 0.00 0.00 0.00 0.00 0.00 0.00 0.00 0.00 0.00 0.00 0.00 0.00 0.00 0.00 0.00 0.00 0.00 0.00 0.00 0.00 0.00 0.00 0.00 0.04 0.04 0.00 0.00 0.00 0.00 0.00 0.00 0.00 0.00 0.00 0.00 0.00 0.00 0.00 0.00 0.00 0.00 0.00 0.00 0.00 0.00 0.00 0.00
0.00 0.00 0.00 0.00 0.00 0.00 0.00 0.00 0.00 0.00 0.00 0.00 0.00 0.00 0.00 0.00 0.00 0.00 0.00 0.00 0.00 0.00 0.00 0.00 0.00 0.00 0.01 0.00 0.00 0.00 0.00 0.00 0.00 0.00 0.00 0.00 0.00 0.00 0.00 0.00 0.00 0.00 0.00 0.00 0.00 0.00 0.00 0.00 0.00
0.00 0.00 0.00 0.00 0.00 0.00 0.00 0.00 0.00 0.00 0.00 0.00 0.00 0.00 0.00 0.00 0.00 0.00 0.00 0.00 0.00 0.00 0.00 0.00 0.00 0.00 0.00 0.00 0.00 0.02 0.04 0.03 0.02 0.00 0.00 0.00 0.00 0.00 0.00 0.00 0.00 0.00 0.00 0.00 0.00 0.00 0.00 0.00 0.00
0.00 0.00 0.00 0.00 0.00 0.00 0.00 0.00 0.00 0.00 0.00 0.00 0.00 0.00 0.00 0.00 0.00 0.00 0.00 0.00 0.00 0.00 0.00 0.00 0.00 0.00 0.00 0.00 0.01 0.01 0.05 0.04 0.01 0.00 0.00 0.00 0.00 0.00 0.00 0.00 0.00 0.00 0.00 0.00 0.00 0.00 0.00 0.00 0.00
0.00 0.00 0.00 0.00 0.00 0.00 0.00 0.00 0.00 0.00 0.00 0.00 0.00 0.00 0.00 0.00 0.00 0.00 0.00 0.00 0.00 0.00 0.00 0.00 0.00 0.00 0.00 0.00 0.00 0.00 0.02 0.02 0.00 0.00 0.00 0.00 0.00 0.00 0.00 0.00 0.00 0.00 0.00 0.00 0.00 0.00 0.00 0.00 0.00
0.00 0.00 0.00 0.00 0.00 0.00 0.00 0.00 0.00 0.00 0.00 0.00 0.00 0.00 0.00 0.00 0.00 0.00 0.00 0.00 0.00 0.00 0.00 0.00 0.00 0.00 0.00 0.00 0.00 0.00 0.01 0.03 0.02 0.00 0.00 0.00 0.00 0.00 0.00 0.00 0.00 0.00 0.00 0.00 0.00 0.00 0.00 0.00 0.00
0.00 0.00 0.00 0.00 0.00 0.00 0.00 0.00 0.00 0.00 0.00 0.00 0.00 0.00 0.00 0.00 0.00 0.00 0.00 0.00 0.00 0.00 0.00 0.00 0.00 0.00 0.00 0.00 0.00 0.00 0.00 0.00 0.00 0.00 0.00 0.00 0.00 0.00 0.00 0.00 0.00 0.00 0.00 0.00 0.00 0.00 0.00 0.00 0.00
0.00 0.00 0.00 0.00 0.00 0.00 0.00 0.00 0.00 0.00 0.00 0.00 0.00 0.00 0.00 0.00 0.00 0.00 0.00 0.00 0.00 0.00 0.00 0.00 0.00 0.00 0.00 0.00 0.00 0.00 0.00 0.00 0.00 0.00 0.00 0.00 0.00 0.00 0.00 0.00 0.00 0.00 0.00 0.00 0.00 0.00 0.00 0.00 0.00
0.00 0.00 0.00 0.00 0.00 0.00 0.00 0.00 0.00 0.00 0.00 0.00 0.00 0.00 0.00 0.00 0.00 0.00 0.00 0.00 0.00 0.00 0.00 0.00 0.00 0.00 0.00 0.00 0.00 0.00 0.00 0.00 0.00 0.00 0.00 0.00 0.00 0.00 0.00 0.00 0.00 0.00 0.00 0.00 0.00 0.00 0.00 0.00 0.00
0.00 0.00 0.00 0.00 0.00 0.00 0.00 0.00 0.00 0.00 0.00 0.00 0.00 0.00 0.00 0.00 0.00 0.00 0.00 0.00 0.00 0.00 0.00 0.00 0.00 0.00 0.00 0.00 0.00 0.00 0.00 0.00 0.00 0.00 0.00 0.00 0.00 0.00 0.00 0.00 0.00 0.00 0.00 0.00 0.00 0.00 0.00 0.00 0.00
0.00 0.00 0.00 0.00 0.00 0.00 0.00 0.00 0.00 0.00 0.00 0.00 0.00 0.00 0.00 0.00 0.00 0.00 0.00 0.00 0.00 0.00 0.00 0.00 0.00 0.00 0.00 0.00 0.00 0.00 0.00 0.00 0.00 0.00 0.00 0.00 0.00 0.00 0.00 0.00 0.00 0.00 0.00 0.00 0.00 0.00 0.00 0.00 0.00
0.00 0.00 0.00 0.00 0.00 0.00 0.00 0.00 0.00 0.00 0.00 0.00 0.00 0.00 0.00 0.00 0.00 0.00 0.00 0.00 0.00 0.00 0.00 0.00 0.00 0.00 0.00 0.00 0.00 0.00 0.00 0.00 0.00 0.00 0.00 0.00 0.00 0.00 0.00 0.01 0.00 0.00 0.00 0.00 0.00 0.02 0.02 0.00 0.00
0.00 0.00 0.00 0.00 0.00 0.00 0.00 0.00 0.00 0.00 0.00 0.00 0.00 0.00 0.00 0.00 0.00 0.00 0.00 0.00 0.00 0.00 0.00 0.00 0.01 0.03 0.01 0.01 0.01 0.00 0.00 0.00 0.00 0.00 0.00 0.00 0.00 0.00 0.00 0.00 0.00 0.00 0.00 0.00 0.00 0.00 0.00 0.06 0.04
MSLP
1009.76 1009.80 1009.84 1009.76 1010.08 1009.67 1010.15 1010.35 1010.16 1009.94 1010.00 1010.35 1010.57 1010.99 1011.51 1012.13 1012.26 1013.34 1013.74 1013.91 1014.16 1014.81 1015.44 1016.12 1016.33 1016.71 1016.41 1016.81 1017.07 1017.17 1017.21 1017.27 1017.46 1017.68 1017.87 1017.97 1018.15 1018.18 1018.28 1018.53 1018.60 1018.56 1018.68 1018.67 1018.87 1018.97 1019.11 1019.10 1019.07
1009.80 1010.01 1009.93 1009.75 1009.92 1010.05 1010.71 1010.71 1010.47 1010.37 1010.52 1010.58 1010.87 1011.25 1011.67 1012.13 1012.85 1013.52 1013.78 1014.10 1014.11 1014.51 1015.28 1015.92 1016.25 1016.65 1016.72 1016.98 1017.19 1017.34 1017.37 1017.51 1017.72 1017.82 1017.98 1018.10 1018.12 1018.16 1018.44 1018.63 1018.68 1018.77 1018.85 1018.92 1019.08 1019.21 1019.32 1019.29 1019.33
1009.91 1009.81 1009.71 1009.93 1010.35 1010.37 1010.73 1011.02 1010.97 1010.77 1010.59 1010.41 1010.77 1011.40 1011.96 1012.52 1013.17 1013.40 1013.77 1014.14 1014.19 1014.77 1015.35 1015.74 1016.31 1016.55 1016.78 1017.09 1017.17 1017.39 1017.45 1017.60 1017.84 1017.94 1018.08 1018.15 1018.18 1018.32 1018.62 1018.77 1018.83 1018.95 1019.06 1019.23 1019.29 1019.33 1019.49 1019.60 1019.64
1009.61 1009.77 1010.17 1010.31 1010.48 1010.89 1011.02 1011.26 1011.26 1010.91 1010.71 1010.72 1011.08 1011.64 1012.61 1013.03 1013.20 1013.58 1014.04 1014.22 1014.37 1014.68 1015.26 1015.97 1016.09 1016.75 1016.81 1016.96 1017.15 1017.52 1017.62 1017.74 1017.94 1018.16 1018.24 1018.26 1018.41 1018.56 1018.76 1018.86 1018.91 1019.27 1019.32 1019.42 1019.42 1019.48 1019.51 1019.62 1019.72
1009.58 1009.78 1010.04 1010.51 1010.79 1011.10 1011.50 1011.61 1011.58 1011.05 1011.01 1010.92 1011.09 1011.89 1012.63 1013.24 1013.37 1013.81 1014.22 1014.49 1014.47 1014.80 1015.73 1016.16 1016.34 1016.65 1016.83 1017.08 1017.20 1017.64 1017.83 1017.95 1018.14 1018.30 1018.20 1018.37 1018.60 1018.76 1018.96 1019.11 1019.24 1019.40 1019.41 1019.44 1019.58 1019.59 1019.60 1019.64 1019.65
1009.22 1009.83 1010.12 1010.51 1010.94 1011.21 1011.55 1011.67 1011.59 1011.12 1011.04 1011.12 1011.32 1011.90 1012.78 1013.45 1013.56 1014.01 1014.29 1014.57 1014.58 1014.88 1015.52 1016.08 1016.53 1016.81 1016.92 1017.00 1017.26 1017.53 1018.20 1018.47 1018.33 1018.29 1018.38 1018.47 1018.64 1018.89 1019.11 1019.36 1019.50 1019.51 1019.51 1019.50 1019.61 1019.63 1019.64 1019.65 1019.72
1009.21 1009.85 1010.40 1010.74 1010.92 1011.07 1011.44 1011.78 1011.52 1011.02 1010.74 1010.73 1011.04 1011.56 1013.03 1013.50 1013.75 1014.17 1014.50 1014.77 1014.95 1015.25 1015.70 1016.14 1016.39 1016.83 1017.00 1017.16 1017.47 1017.88 1018.27 1018.87 1018.76 1018.44 1018.26 1018.76 1018.90 1019.11 1019.22 1019.53 1019.54 1019.52 1019.45 1019.53 1019.64 1019.69 1019.81 1019.90 1020.00
1009.82 1010.13 1010.31 1010.53 1010.61 1010.71 1011.32 1011.43 1011.29 1011.02 1010.75 1010.81 1011.02 1011.15 1012.22 1013.00 1013.80 1014.36 1014.73 1015.03 1015.40 1015.62 1015.70 1016.15 1016.33 1016.76 1017.03 1017.49 1017.51 1017.97 1018.34 1018.68 1018.80 1018.56 1018.29 1018.77 1019.06 1019.18 1019.50 1019.55 1019.49 1019.41 1019.33 1019.32 1019.51 1019.59 1020.01 1020.00 1020.02
1010.03 1010.05 1009.92 1009.89 1010.04 1010.12 1011.03 1010.96 1011.03 1010.73 1010.54 1010.71 1010.92 1011.09 1011.58 1012.76 1013.67 1014.30 1014.74 1015.15 1015.43 1015.91 1015.99 1016.15 1016.64 1017.02 1017.26 1017.62 1017.86 1018.13 1018.32 1018.42 1018.56 1018.55 1018.86 1018.93 1019.09 1019.12 1019.43 1019.51 1019.35 1019.23 1019.21 1019.12 1019.44 1019.70 1019.73 1020.06 1020.11
1009.64 1009.92 1009.67 1009.57 1009.72 1009.88 1010.34 1010.50 1010.51 1010.48 1010.43 1010.39 1010.76 1011.37 1011.99 1012.83 1013.55 1014.00 1014.57 1014.99 1015.29 1015.69 1016.10 1016.33 1016.60 1016.72 1017.17 1017.56 1017.82 1018.24 1018.50 1018.48 1018.62 1018.76 1018.84 1019.02 1019.24 1019.32 1019.35 1019.41 1019.38 1019.24 1019.48 1019.40 1019.72 1019.71 1019.86 1019.95 1019.73
1009.52 1009.34 1009.40 1009.14 1009.29 1009.70 1010.06 1010.39 1010.38 1010.11 1009.93 1009.96 1010.31 1011.34 1012.16 1012.76 1013.43 1013.92 1014.34 1014.76 1015.08 1015.41 1015.92 1016.37 1016.60 1016.80 1017.04 1017.28 1017.77 1018.25 1018.48 1018.55 1018.66 1018.76 1018.93 1018.95 1019.15 1019.28 1019.29 1019.39 1019.29 1019.26 1019.60 1019.51 1019.67 1019.75 1019.71 1019.73 1019.64
1009.35 1009.11 1009.16 1008.98 1009.02 1009.57 1009.84 1010.10 1010.02 1010.04 1009.70 1009.92 1010.32 1011.31 1012.09 1012.57 1013.08 1013.59 1013.98 1014.37 1014.82 1015.21 1015.75 1016.27 1016.52 1016.78 1017.00 1017.26 1017.60 1018.01 1018.36 1018.42 1018.22 1018.61 1018.81 1018.94 1019.01 1019.14 1019.16 1019.24 1019.36 1019.52 1019.65 1019.57 1019.90 1019.93 1020.09 1019.96 1019.96
1009.10 1008.80 1008.82 1008.73 1008.90 1009.04 1009.55 1009.60 1009.84 1009.50 1009.67 1010.08 1010.64 1011.39 1011.96 1012.44 1012.89 1013.40 1013.75 1014.13 1014.62 1015.11 1015.57 1016.10 1016.41 1016.77 1017.00 1017.30 1017.41 1017.92 1018.13 1018.34 1018.28 1018.60 1018.91 1019.11 1018.87 1018.93 1019.00 1019.11 1019.59 1019.87 1019.98 1019.91 1020.11 1020.06 1019.93 1019.90 1019.75
1008.82 1008.64 1008.58 1008.52 1008.64 1008.76 1009.03 1009.34 1009.56 1009.03 1009.51 1010.14 1010.64 1011.22 1011.74 1012.17 1012.55 1013.04 1013.52 1013.83 1014.24 1014.84 1015.26 1015.88 1016.29 1016.57 1016.88 1017.18 1017.52 1017.93 1018.06 1018.23 1018.76 1018.68 1018.87 1019.07 1018.85 1018.86 1019.07 1018.91 1019.50 1019.63 1019.92 1019.94 1020.12 1020.09 1019.89 1019.88 1019.65
1008.78 1008.48 1008.27 1008.43 1008.51 1008.56 1008.86 1008.63 1008.36 1008.83 1009.31 1009.92 1010.40 1010.94 1011.36 1011.82 1012.27 1012.52 1013.00 1013.43 1013.93 1014.54 1015.10 1015.65 1016.12 1016.34 1016.81 1017.12 1017.39 1017.81 1017.89 1018.20 1018.42 1018.69 1018.69 1018.93 1018.98 1018.73 1018.94 1018.72 1019.37 1019.58 1019.86 1019.91 1020.08 1020.09 1020.00 1019.82 1019.75
1008.92 1008.86 1008.55 1008.55 1008.64 1008.57 1008.80 1007.73 1007.65 1008.47 1008.88 1009.49 1010.02 1010.41 1010.94 1011.18 1011.58 1012.18 1012.50 1012.91 1013.52 1014.10 1014.83 1015.41 1015.95 1016.25 1016.64 1016.91 1017.27 1017.58 1017.80 1018.12 1018.40 1018.68 1018.60 1018.56 1018.65 1018.67 1018.70 1018.67 1019.28 1019.69 1019.88 1019.77 1019.72 1019.83 1019.93 1019.92 1019.85
1009.32 1008.99 1008.94 1008.72 1008.69 1008.67 1008.65 1007.42 1007.68 1008.18 1008.55 1009.00 1009.48 1009.77 1010.14 1010.65 1011.09 1011.53 1012.09 1012.55 1012.90 1013.51 1014.42 1015.06 1015.71 1016.19 1016.58 1016.98 1017.21 1017.54 1018.08 1018.13 1018.39 1018.46 1018.31 1018.42 1018.45 1018.46 1018.53 1018.64 1018.99 1019.63 1019.65 1019.74 1019.64 1019.85 1020.06 1019.94 1019.88
1009.69 1009.35 1009.01 1008.85 1008.57 1008.39 1008.12 1007.14 1007.02 1007.98 1008.23 1008.23 1008.64 1009.08 1009.33 1009.65 1009.82 1010.49 1011.24 1011.99 1012.55 1013.23 1013.87 1014.64 1015.32 1016.07 1016.55 1016.94 1017.34 1017.55 1017.67 1018.10 1018.37 1018.28 1018.23 1018.32 1018.23 1018.26 1018.60 1018.70 1019.09 1019.55 1019.48 1019.67 1019.66 1019.80 1019.96 1020.05 1019.97
1010.11 1009.68 1009.14 1008.07 1008.26 1008.08 1007.37 1006.84 1006.01 1006.93 1007.38 1007.44 1007.80 1008.11 1008.37 1008.38 1008.75 1009.80 1010.57 1011.36 1012.06 1012.73 1013.49 1014.07 1014.76 1015.67 1016.29 1016.73 1017.14 1017.63 1017.63 1017.96 1018.32 1018.39 1018.25 1018.38 1018.22 1018.22 1018.45 1018.56 1018.95 1019.23 1019.49 1019.70 1019.97 1020.02 1020.11 1019.92 1020.03
1009.82 1009.33 1008.67 1007.93 1008.05 1007.88 1006.86 1006.14 1005.49 1005.93 1005.87 1006.19 1006.65 1006.94 1007.23 1007.80 1008.38 1009.11 1009.79 1010.59 1011.33 1012.06 1012.88 1013.65 1014.23 1015.04 1015.65 1016.12 1016.60 1017.04 1017.45 1017.98 1018.00 1017.89 1018.19 1018.42 1018.32 1018.31 1018.38 1018.62 1018.77 1018.96 1019.22 1019.58 1019.91 1020.13 1020.03 1019.88 1019.94
1009.15 1008.87 1008.53 1008.36 1007.57 1007.25 1006.96 1005.62 1005.04 1005.12 1005.42 1005.58 1005.84 1005.96 1006.30 1006.64 1007.34 1008.24 1009.06 1009.59 1010.57 1011.28 1011.99 1012.95 1013.66 1014.46 1015.13 1015.63 1016.36 1016.97 1017.52 1017.81 1018.00 1017.89 1018.07 1018.18 1018.37 1018.33 1018.36 1018.47 1018.63 1018.83 1019.04 1019.28 1019.68 1019.90 1020.05 1019.64 1019.79
1008.33 1008.30 1008.41 1008.17 1007.88 1007.18 1007.13 1005.78 1004.83 1004.84 1004.83 1004.89 1004.81 1005.01 1005.26 1005.87 1006.81 1007.39 1008.11 1008.98 1009.56 1010.41 1011.56 1012.45 1013.16 1013.92 1014.64 1015.31 1015.76 1016.04 1016.33 1016.72 1016.94 1017.20 1017.45 1017.68 1018.09 1018.29 1018.26 1018.41 1018.59 1018.77 1018.80 1019.06 1019.33 1019.61 1019.84 1019.91 1019.63
1008.03 1008.28 1008.30 1008.09 1007.76 1007.44 1006.72 1006.34 1004.47 1004.52 1003.91 1003.62 1003.66 1003.90 1004.37 1005.05 1005.82 1006.46 1007.12 1007.83 1008.68 1010.06 1010.91 1011.77 1012.71 1013.42 1013.91 1014.65 1014.99 1015.55 1015.71 1016.03 1016.46 1017.04 1017.26 1017.43 1017.58 1017.95 1018.00 1018.26 1018.38 1018.52 1018.51 1018.84 1019.02 1019.29 1019.66 1019.81 1019.74
1007.96 1007.88 1008.07 1008.14 1007.75 1006.90 1006.80 1006.23 1004.17 1003.97 1003.94 1003.01 1003.27 1003.45 1003.86 1004.48 1005.21 1005.80 1006.59 1007.53 1008.40 1009.52 1010.37 1011.33 1012.16 1012.70 1013.35 1014.01 1014.47 1014.97 1015.20 1015.51 1015.91 1016.37 1016.89 1017.05 1017.17 1017.53 1017.75 1018.00 1018.21 1018.35 1018.30 1018.62 1018.63 1019.05 1019.36 1019.51 1019.66
1007.80 1007.65 1007.25 1007.15 1007.10 1006.69 1006.97 1006.25 1004.24 1004.00 1003.59 1003.34 1003.04 1003.12 1003.34 1003.97 1004.86 1005.49 1006.12 1006.88 1007.81 1008.62 1009.54 1010.42 1011.30 1011.96 1012.57 1013.30 1013.80 1014.29 1014.80 1015.22 1015.46 1015.89 1016.18 1016.72 1016.96 1017.22 1017.24 1017.60 1017.90 1018.03 1018.27 1018.28 1018.46 1018.85 1019.12 1019.26 1019.32
1007.12 1007.20 1007.00 1006.77 1006.84 1006.68 1006.95 1005.46 1003.66 1003.93 1003.64 1003.40 1003.05 1003.00 1003.17 1003.54 1004.09 1004.76 1005.45 1006.17 1007.04 1007.88 1008.73 1009.52 1010.31 1011.04 1011.80 1012.42 1013.07 1013.72 1014.30 1014.77 1015.03 1015.40 1015.61 1015.97 1016.21 1016.50 1016.63 1017.08 1017.63 1017.62 1017.95 1018.11 1018.21 1018.61 1018.83 1019.04 1019.08
1007.19 1007.24 1007.02 1006.88 1007.69 1006.93 1005.84 1004.95 1003.79 1003.61 1003.27 1003.06 1003.01 1002.75 1003.05 1003.29 1003.74 1004.23 1004.84 1005.60 1006.34 1007.07 1007.78 1008.49 1009.42 1010.24 1010.99 1011.53 1012.44 1013.07 1013.71 1014.24 1014.44 1014.89 1015.36 1015.61 1015.92 1016.13 1016.54 1016.83 1017.26 1017.12 1017.37 1017.69 1017.84 1018.16 1018.53 1018.77 1018.88
1006.66 1006.96 1007.11 1006.91 1006.55 1005.98 1005.47 1004.87 1003.68 1003.22 1003.08 1002.78 1002.63 1002.79 1002.99 1003.21 1003.41 1003.74 1004.12 1004.71 1005.38 1006.20 1007.11 1008.27 1008.97 1009.36 1009.97 1010.74 1011.64 1012.27 1012.95 1013.59 1013.99 1014.48 1014.82 1015.11 1015.44 1015.88 1016.11 1016.50 1016.80 1017.02 1017.03 1017.27 1017.72 1017.88 1018.07 1018.33 1018.36
1006.96 1006.81 1007.07 1006.88 1006.48 1005.61 1004.98 1003.90 1003.53 1003.44 1003.62 1003.54 1003.14 1002.90 1003.03 1003.06 1003.12 1003.28 1003.68 1004.25 1004.92 1005.71 1006.64 1007.36 1008.36 1009.15 1009.68 1010.12 1010.84 1011.37 1011.95 1012.82 1013.56 1013.83 1014.15 1014.59 1015.05 1015.46 1015.77 1016.07 1016.33 1016.64 1016.82 1017.01 1017.30 1017.55 1017.73 1017.97 1017.97
1006.89 1006.89 1006.86 1006.39 1006.60 1006.39 1005.56 1004.04 1003.78 1003.75 1003.86 1003.94 1003.54 1003.63 1003.81 1003.64 1003.47 1003.51 1003.39 1003.97 1004.51 1005.09 1005.96 1006.83 1007.47 1008.00 1008.52 1009.25 1010.06 1010.62 1011.40 1011.96 1012.59 1013.11 1013.46 1013.85 1014.31 1014.84 1015.25 1015.55 1015.87 1016.07 1016.38 1016.67 1016.86 1017.00 1017.18 1017.40 1017.49
Thickness
5820 5821 5822 5814 5791 5792 5767 5771 5788 5783 5783 5794 5796 5785 5776 5773 5770 5758 5779 5780 5778 5772 5766 5762 5762 5758 5758 5759 5757 5756 5758 5758 5757 5756 5754 5752 5752 5751 5749 5746 5746 5745 5743 5743 5740 5737 5735 5734 5733
5821 5820 5816 5803 5783 5766 5762 5779 5776 5785 5789 5795 5791 5785 5777 5769 5776 5770 5773 5778 5777 5773 5766 5764 5759 5757 5758 5757 5755 5755 5756 5755 5755 5754 5754 5753 5753 5753 5749 5746 5745 5744 5742 5741 5738 5736 5734 5733 5732
5821 5821 5804 5789 5774 5765 5762 5775 5778 5786 5796 5795 5788 5790 5779 5771 5775 5775 5781 5779 5777 5772 5766 5766 5762 5756 5757 5756 5755 5754 5755 5755 5755 5754 5753 5754 5754 5752 5748 5746 5744 5743 5741 5739 5737 5736 5734 5732 5731
5819 5812 5802 5779 5770 5775 5776 5779 5781 5785 5793 5797 5791 5776 5780 5783 5778 5780 5780 5778 5777 5773 5768 5764 5764 5761 5759 5759 5757 5754 5753 5755 5754 5752 5752 5754 5752 5750 5748 5746 5744 5741 5739 5738 5737 5736 5736 5734 5732
5820 5805 5783 5775 5773 5778 5780 5781 5781 5782 5785 5787 5790 5773 5773 5780 5785 5781 5778 5775 5775 5771 5764 5763 5762 5760 5758 5759 5757 5753 5752 5751 5750 5749 5752 5752 5750 5748 5746 5745 5742 5739 5739 5738 5737 5736 5737 5736 5736
5805 5801 5776 5769 5772 5778 5780 5783 5781 5784 5788 5787 5783 5777 5774 5781 5780 5779 5778 5774 5773 5770 5764 5762 5760 5757 5757 5759 5757 5752 5747 5745 5746 5749 5751 5752 5750 5748 5745 5743 5741 5740 5740 5740 5738 5737 5737 5737 5737
5801 5789 5773 5772 5771 5773 5776 5783 5778 5784 5788 5788 5793 5776 5774 5775 5780 5779 5775 5773 5769 5768 5764 5760 5760 5756 5758 5758 5756 5752 5749 5744 5745 5748 5749 5750 5748 5746 5744 5742 5741 5742 5742 5740 5740 5738 5737 5736 5736
5803 5792 5776 5775 5771 5774 5779 5781 5785 5785 5785 5799 5797 5778 5772 5780 5780 5777 5773 5771 5766 5765 5764 5761 5760 5757 5756 5755 5755 5750 5749 5746 5746 5750 5753 5749 5748 5746 5742 5742 5743 5744 5745 5744 5742 5741 5737 5738 5739
5806 5784 5775 5779 5778 5785 5783 5781 5789 5798 5792 5794 5796 5792 5794 5788 5781 5773 5768 5766 5765 5763 5764 5762 5758 5755 5752 5752 5751 5749 5748 5748 5748 5750 5748 5748 5749 5746 5743 5744 5747 5747 5747 5748 5746 5743 5742 5740 5739
5795 5778 5782 5796 5795 5789 5788 5787 5789 5789 5787 5790 5791 5793 5792 5785 5778 5771 5765 5761 5762 5761 5761 5761 5758 5755 5752 5752 5751 5749 5747 5748 5748 5749 5749 5749 5747 5746 5745 5746 5747 5749 5747 5747 5745 5745 5744 5744 5744
5793 5783 5794 5801 5802 5798 5790 5785 5793 5788 5784 5794 5791 5786 5785 5781 5776 5770 5768 5766 5763 5764 5762 5760 5758 5756 5753 5754 5751 5748 5748 5748 5747 5747 5748 5749 5748 5747 5747 5746 5747 5748 5747 5746 5746 5747 5747 5747 5748
5784 5796 5797 5802 5805 5796 5788 5793 5789 5790 5795 5803 5801 5792 5786 5780 5775 5772 5769 5768 5767 5765 5763 5761 5759 5756 5754 5753 5754 5751 5750 5750 5750 5749 5749 5749 5749 5749 5749 5747 5747 5747 5747 5747 5746 5747 5747 5748 5749
5787 5796 5801 5807 5805 5803 5799 5792 5789 5793 5802 5803 5796 5789 5783 5780 5777 5775 5774 5773 5770 5765 5764 5761 5759 5756 5754 5754 5754 5752 5750 5750 5750 5749 5749 5748 5750 5752 5751 5749 5746 5744 5744 5746 5746 5746 5747 5750 5753
5798 5799 5801 5806 5805 5805 5796 5793 5792 5800 5803 5796 5792 5786 5783 5780 5779 5776 5773 5771 5770 5768 5766 5763 5759 5756 5755 5754 5753 5751 5751 5750 5748 5749 5750 5750 5750 5753 5752 5752 5747 5748 5746 5746 5746 5747 5750 5753 5756
5798 5791 5799 5799 5802 5798 5801 5789 5791 5802 5801 5792 5789 5787 5784 5781 5781 5778 5776 5773 5772 5769 5768 5764 5760 5757 5755 5754 5753 5750 5751 5751 5749 5749 5750 5749 5750 5755 5753 5753 5750 5748 5745 5748 5748 5750 5752 5756 5758
5784 5786 5774 5793 5796 5799 5795 5780 5804 5802 5798 5791 5790 5788 5784 5784 5783 5781 5781 5779 5776 5772 5767 5765 5761 5760 5757 5755 5753 5752 5751 5750 5748 5748 5750 5751 5753 5756 5755 5755 5753 5750 5749 5751 5753 5754 5756 5758 5759
5776 5764 5766 5776 5794 5791 5788 5787 5801 5802 5797 5791 5790 5790 5789 5786 5785 5784 5783 5780 5779 5775 5770 5766 5762 5759 5757 5754 5753 5751 5748 5748 5747 5748 5751 5752 5755 5757 5757 5757 5755 5752 5752 5752 5754 5755 5755 5757 5760
5754 5761 5768 5766 5785 5789 5785 5790 5806 5799 5797 5796 5795 5794 5792 5791 5792 5792 5788 5785 5781 5777 5773 5768 5764 5759 5757 5753 5751 5750 5750 5747 5746 5747 5750 5753 5756 5757 5756 5757 5755 5753 5754 5753 5754 5755 5756 5756 5759
5766 5763 5763 5785 5793 5782 5786 5790 5806 5807 5802 5802 5799 5799 5798 5799 5804 5799 5793 5788 5784 5779 5774 5771 5766 5761 5758 5754 5751 5748 5748 5748 5748 5748 5749 5751 5755 5757 5756 5756 5755 5754 5754 5752 5750 5751 5752 5756 5758
5767 5764 5772 5787 5789 5786 5792 5795 5814 5811 5813 5814 5808 5806 5805 5803 5802 5800 5797 5792 5787 5782 5777 5772 5769 5764 5762 5759 5756 5753 5750 5746 5748 5749 5749 5750 5753 5755 5756 5756 5755 5756 5756 5753 5750 5750 5752 5756 5758
5772 5767 5770 5770 5787 5793 5787 5795 5805 5817 5816 5818 5819 5820 5817 5812 5807 5802 5799 5797 5791 5785 5781 5775 5772 5767 5764 5761 5757 5752 5748 5746 5745 5748 5749 5749 5750 5753 5755 5755 5755 5754 5756 5755 5753 5753 5752 5755 5758
5768 5782 5776 5772 5772 5767 5785 5767 5800 5804 5809 5812 5821 5822 5821 5818 5813 5810 5805 5800 5797 5791 5784 5778 5774 5769 5766 5762 5759 5756 5754 5749 5751 5751 5751 5752 5750 5752 5753 5753 5753 5753 5756 5756 5756 5755 5755 5755 5755
5775 5782 5775 5774 5771 5770 5778 5770 5803 5802 5813 5823 5829 5830 5829 5825 5820 5814 5810 5807 5803 5792 5786 5781 5775 5771 5769 5765 5764 5759 5756 5756 5755 5750 5749 5751 5751 5751 5752 5752 5753 5753 5756 5756 5757 5757 5755 5757 5756
5787 5780 5772 5766 5767 5758 5766 5771 5792 5802 5806 5823 5830 5832 5831 5828 5824 5821 5817 5810 5802 5795 5788 5781 5776 5773 5771 5767 5766 5761 5759 5757 5755 5753 5750 5751 5753 5752 5752 5751 5752 5753 5754 5755 5757 5757 5757 5757 5758
5776 5769 5752 5751 5751 5751 5762 5763 5791 5807 5820 5822 5824 5830 5834 5831 5823 5819 5814 5810 5804 5797 5792 5786 5780 5776 5775 5770 5768 5766 5762 5759 5756 5754 5753 5750 5749 5750 5753 5752 5752 5753 5754 5755 5756 5757 5757 5759 5759
5773 5775 5756 5731 5742 5755 5754 5763 5797 5811 5822 5825 5831 5833 5834 5832 5829 5823 5818 5814 5807 5802 5797 5792 5787 5782 5778 5775 5771 5768 5764 5760 5759 5757 5757 5755 5755 5755 5754 5753 5752 5753 5754 5756 5756 5756 5758 5759 5760
5767 5761 5778 5757 5738 5744 5767 5782 5809 5814 5820 5825 5827 5833 5831 5832 5830 5826 5823 5817 5812 5807 5803 5798 5792 5787 5783 5780 5774 5770 5766 5762 5761 5759 5758 5756 5756 5756 5754 5753 5752 5755 5755 5754 5756 5758 5757 5758 5759
5780 5781 5761 5758 5733 5735 5757 5758 5780 5802 5808 5821 5826 5828 5831 5832 5832 5831 5828 5825 5820 5814 5809 5801 5795 5792 5788 5783 5777 5773 5769 5766 5763 5761 5758 5758 5757 5756 5756 5755 5754 5754 5754 5755 5754 5755 5756 5755 5757
5767 5765 5760 5763 5758 5749 5746 5768 5803 5802 5804 5806 5819 5828 5830 5832 5833 5834 5831 5828 5823 5818 5811 5804 5797 5791 5787 5786 5782 5779 5775 5769 5764 5762 5762 5759 5758 5757 5756 5756 5756 5754 5755 5755 5754 5754 5755 5752 5754
5773 5764 5766 5757 5746 5744 5746 5763 5799 5804 5805 5807 5815 5818 5820 5824 5827 5830 5834 5829 5824 5819 5812 5805 5801 5797 5794 5789 5784 5781 5777 5774 5768 5765 5765 5765 5761 5759 5757 5758 5757 5756 5755 5755 5755 5755 5756 5755 5754